Overview Statistics Trail Chart Weather Telemetry Raw packets
 

This is the latest recevied weather packets stored in our database for station/object WW6Q. If no packets are shown the sender has not sent any weather packets the latest 10 day(s).

<< 34 35 36 37 38 39 40 >>
Time Temp. Humidity Pressure Rain* Wind** Luminosity Snow
1788392025 29.44° C 74% 1013.4 hPa 0 mm - 26 W/m² -
1788391723 30° C 73% 1013.3 hPa 0 mm - 28 W/m² -
1788391419 30° C 71% 1013.3 hPa 0 mm - 31 W/m² -
1788391118 30° C 70% 1013.3 hPa 0 mm - 33 W/m² -
1788390813 30.56° C 69% 1013.4 hPa 0 mm - 36 W/m² -
1788390508 30.56° C 69% 1013.1 hPa 0 mm - 38 W/m² -
1788390208 30.56° C 68% 1013.1 hPa 0 mm - 40 W/m² -
1788389902 30.56° C 68% 1013.3 hPa 0 mm - 42 W/m² -
1788389597 31.11° C 67% 1013.2 hPa 0 mm - 44 W/m² -
1788389296 31.11° C 66% 1013.4 hPa 0 mm - 46 W/m² -
1788388991 31.11° C 66% 1013.2 hPa 0 mm - 48 W/m² -
1788388687 31.11° C 65% 1013.3 hPa 0 mm - 49 W/m² -
1788388382 31.11° C 64% 1013.2 hPa 0 mm - 51 W/m² -
1788388081 31.11° C 67% 1013.2 hPa 0 mm - 53 W/m² -
1788387781 31.67° C 66% 1013.5 hPa 0 mm - 55 W/m² -
1788387481 31.67° C 65% 1013.4 hPa 0 mm - 57 W/m² -
1788387180 31.67° C 64% 1013.3 hPa 0 mm - 60 W/m² -
1788386876 31.67° C 64% 1013.2 hPa 0 mm - 64 W/m² -
1788386575 31.67° C 64% 1013.4 hPa 0 mm - 64 W/m² -
1788386271 32.22° C 63% 1013.4 hPa 0 mm - 70 W/m² -
1788385966 32.22° C 63% 1013.6 hPa 0 mm - 71 W/m² -
1788385662 32.22° C 65% 1013.5 hPa 0 mm - 72 W/m² -
1788385361 32.22° C 61% 1013.4 hPa 0 mm - 74 W/m² -
1788385057 32.22° C 60% 1013.3 hPa 0 mm - 77 W/m² -
1788384756 32.78° C 60% 1013.5 hPa 0 mm - 78 W/m² -

* Rain latest hour (hover to see other rain measurements)
** Current wind speed in m/s (hover to see current wind gust speed)